Wind_Speed
27 24 24 20 16 13 12 15 13 15 6 24 27 22 15 25 29 25 23 13 21 27 25 24 23 19 18 18 19 18 17 13 14 13 14 14 21 19 20 23 22 19 18 18
34 32 30 23 19 14 18 16 21 17 14 13 20 26 17 20 34 32 30 22 19 23 29 28 27 25 20 19 19 19 20 16 17 15 16 16 20 22 22 21 18 16 16 16
39 39 30 29 25 20 23 23 21 15 3 8 7 16 22 27 28 36 33 31 21 18 28 33 32 29 25 22 22 21 21 19 19 18 17 17 18 22 22 20 17 15 14 13
29 34 32 32 33 26 28 22 25 20 8 13 3 10 25 20 28 35 38 35 25 19 21 31 33 34 28 24 24 22 23 21 20 20 17 16 18 21 21 20 17 14 12 10
32 26 28 31 33 28 31 20 28 24 28 23 21 14 30 28 29 36 42 35 25 19 19 27 35 33 27 28 26 24 24 23 22 21 20 19 21 22 22 19 16 12 9 8
37 32 29 31 32 29 24 30 31 29 31 22 36 31 39 33 34 30 36 33 23 18 14 18 23 27 27 26 29 28 26 26 25 23 24 24 24 23 21 17 13 11 7 6
36 36 33 33 28 31 35 32 23 10 6 13 27 24 41 35 26 31 24 19 21 14 17 11 20 28 29 27 30 32 30 29 27 27 28 27 26 24 21 17 14 10 8 7
34 30 37 33 39 34 35 36 24 6 4 16 21 11 10 11 13 16 24 14 14 20 16 18 12 25 30 29 28 33 33 32 30 29 30 30 29 26 22 19 14 10 7 7
26 30 32 38 35 25 32 36 31 31 33 8 7 4 10 5 11 16 23 25 20 25 26 18 20 16 30 31 29 32 34 33 32 31 32 33 32 29 25 20 15 10 6 5
39 33 22 29 34 36 34 30 21 21 6 5 9 14 10 14 15 23 22 22 21 23 28 26 24 17 30 29 27 32 35 34 33 33 35 35 34 31 26 21 15 8 5 4
23 36 35 29 33 36 36 33 34 24 29 8 4 10 15 22 18 9 16 18 13 12 25 29 28 22 26 30 27 33 38 38 37 36 37 38 37 33 29 23 17 10 5 1
2 12 33 44 33 26 26 21 22 30 26 13 24 25 15 20 20 13 17 22 23 19 28 31 31 29 25 30 29 32 40 41 39 39 39 40 38 35 31 25 19 13 8 4
9 2 5 22 36 33 31 33 27 22 32 37 17 16 20 18 18 23 23 30 32 27 26 28 34 36 28 30 30 32 39 41 39 41 42 42 41 37 32 26 21 16 11 6
8 3 6 11 16 6 13 22 26 21 29 32 34 28 19 13 21 23 26 19 22 23 25 29 32 38 32 26 30 33 37 41 40 42 44 44 42 38 33 27 23 19 14 9
8 3 12 14 16 14 13 14 18 14 24 32 34 35 31 21 23 24 18 19 22 25 29 29 28 34 33 25 31 33 34 39 40 42 44 45 42 39 35 30 25 21 17 12
6 8 14 16 9 11 14 17 18 13 13 25 35 33 32 25 23 25 24 21 19 31 28 36 28 27 29 25 31 32 33 36 40 40 42 45 44 41 37 32 28 25 21 16
5 12 12 10 7 7 11 13 13 11 12 15 29 34 26 23 23 20 18 22 21 37 23 30 28 34 25 23 28 31 30 32 36 38 41 42 44 42 38 33 31 28 24 19
7 8 8 10 6 3 7 9 4 10 15 13 22 31 33 21 25 25 20 20 25 31 32 29 26 29 25 19 22 26 28 32 33 37 39 41 45 43 40 37 33 31 26 25
9 3 6 6 8 11 8 1 8 11 13 16 18 23 26 23 31 25 23 16 10 17 28 21 21 23 25 21 21 25 29 34 34 36 38 39 39 44 41 38 34 32 29 28
16 7 7 8 4 2 3 7 5 6 8 9 8 16 25 28 30 28 21 16 16 19 16 17 23 26 25 23 22 25 28 30 33 34 35 36 37 40 41 36 34 33 31 30
11 12 13 10 5 8 14 18 15 4 8 7 7 8 28 34 26 20 20 18 20 21 19 17 24 22 24 22 22 24 25 27 25 26 30 34 36 36 35 34 34 32 31 32
7 7 10 5 3 4 16 10 2 4 3 1 5 12 32 35 30 19 25 31 26 20 24 21 21 21 22 22 23 22 20 18 21 24 27 31 33 34 34 33 32 33 35 35
6 4 10 7 2 5 11 11 8 3 2 2 5 13 20 24 29 23 31 26 21 26 24 24 21 21 20 22 22 20 18 16 18 19 20 23 29 30 31 34 36 36 36 37
5 8 17 20 19 12 12 4 2 6 10 4 3 7 13 23 22 26 32 28 28 24 27 23 26 23 21 21 19 20 15 16 18 18 20 21 22 26 31 36 37 38 40 41
7 4 9 23 21 15 11 7 9 8 14 14 6 6 7 13 27 33 34 28 25 25 23 17 14 19 24 26 23 18 17 18 19 20 23 27 29 32 35 37 39 41 42 43
8 5 3 5 3 14 14 9 7 10 11 18 17 8 8 9 17 28 31 32 35 31 38 38 22 8 21 23 23 24 22 19 20 22 24 25 25 26 29 34 36 37 39 43
Wind_Direction
236 242 237 235 242 266 273 293 272 271 250 271 249 274 262 248 242 245 246 231 208 205 200 201 207 206 202 192 192 186 186 190 173 160 149 152 147 138 134 120 113 109 99 89
237 234 238 244 250 257 264 266 263 269 259 255 249 266 244 234 243 249 247 248 219 209 198 203 206 213 210 196 195 188 188 193 179 170 168 167 157 150 135 123 114 108 101 89
229 238 238 243 248 246 254 257 253 261 241 288 303 264 245 237 240 243 241 248 237 214 207 204 208 213 214 203 198 187 180 190 186 183 176 172 164 154 139 128 123 117 105 87
231 232 236 241 243 240 251 240 262 244 242 275 317 279 285 270 246 239 234 236 229 214 212 216 210 218 216 207 201 192 182 188 189 195 181 177 175 163 148 139 134 124 110 86
218 226 227 232 233 233 243 239 260 256 247 251 238 245 284 294 237 233 226 226 226 224 215 219 217 218 217 207 203 197 189 193 195 196 187 185 181 170 157 150 139 137 119 79
228 224 232 236 237 226 230 250 261 270 248 240 244 246 271 265 245 234 228 222 228 213 215 233 223 227 223 211 205 204 195 197 199 196 190 187 185 176 165 155 150 140 108 66
224 227 224 230 240 233 237 248 256 270 240 241 263 260 261 267 252 243 232 215 230 215 217 230 240 216 217 217 211 207 200 199 199 196 192 190 187 180 170 169 171 140 111 68
238 245 222 217 233 234 229 243 233 204 207 264 278 227 235 242 230 254 217 227 246 244 239 238 245 234 216 217 212 208 202 199 200 197 192 191 190 182 176 179 172 146 118 77
234 239 233 224 219 223 235 244 247 245 255 253 242 125 164 192 209 216 217 221 236 254 253 247 232 240 220 215 209 206 205 200 200 196 194 193 193 184 181 183 180 161 120 87
236 244 237 238 231 228 240 237 235 220 223 226 220 205 211 224 205 201 219 234 269 228 241 236 240 229 220 216 206 204 206 203 200 197 195 195 194 189 186 187 185 170 135 79
230 234 244 233 227 228 232 240 240 249 236 209 186 225 217 259 227 230 236 226 260 271 254 242 239 229 222 219 202 200 205 204 201 199 197 196 196 195 191 189 190 182 169 151
298 234 234 236 241 235 238 240 243 233 236 232 236 236 243 280 230 235 259 242 235 255 279 251 240 231 222 215 205 201 205 205 202 200 199 198 198 200 197 192 195 193 186 206
332 356 241 232 247 247 250 239 246 268 250 246 240 264 254 232 240 233 241 233 232 240 248 244 245 236 228 218 212 205 204 206 203 202 201 202 200 201 200 197 201 202 202 216
314 327 302 232 220 253 232 237 245 262 239 233 235 240 250 263 231 239 241 225 241 255 249 238 237 239 232 227 218 210 205 206 206 204 204 204 202 201 203 202 209 212 210 219
321 291 299 255 252 244 253 253 241 278 246 235 241 239 246 262 235 219 223 246 253 259 249 233 230 231 231 228 219 214 206 206 207 207 206 205 204 205 207 207 212 221 224 224
341 322 316 274 265 261 265 251 250 282 280 253 244 246 244 250 245 238 260 248 254 248 245 232 234 228 230 232 222 214 207 206 208 210 207 208 208 209 210 209 214 224 230 235
309 357 347 269 256 268 261 261 259 284 311 285 248 238 243 249 226 227 267 243 231 253 244 229 232 234 238 237 227 216 212 209 211 212 210 209 210 211 212 213 218 225 233 241
271 338 344 309 299 212 217 196 245 313 320 289 237 239 237 243 239 240 246 247 259 224 223 218 228 233 236 240 236 219 215 215 212 214 212 210 210 213 214 217 220 228 235 244
256 315 332 330 321 292 261 347 332 333 328 330 249 232 226 228 229 220 208 241 258 221 226 236 234 227 236 233 232 219 212 215 213 212 212 210 211 214 216 217 220 230 239 248
242 252 265 317 327 275 275 300 336 299 275 341 296 231 200 214 200 198 206 218 228 239 217 234 227 227 233 230 226 218 213 212 210 209 210 210 211 214 217 219 223 232 241 252
226 233 253 266 277 293 310 315 340 238 306 24 12 202 189 192 201 210 203 207 220 234 234 219 222 237 217 215 213 214 212 212 207 210 209 211 212 214 218 222 225 233 243 251
254 213 231 242 249 317 341 308 34 116 201 147 74 147 181 185 192 172 199 199 215 224 233 221 215 213 204 204 212 209 200 197 201 205 208 211 215 218 221 225 228 234 241 251
213 190 224 206 152 181 50 94 94 19 9 225 136 149 165 188 184 191 198 212 231 234 236 243 215 201 208 204 205 208 188 205 205 204 203 208 214 217 221 221 231 241 247 253
263 242 226 219 242 247 246 241 205 285 293 314 245 164 157 178 181 198 195 198 206 217 231 236 207 205 198 206 204 201 215 223 228 228 227 226 228 222 224 232 239 246 250 254
333 321 232 222 240 229 243 244 243 267 275 273 272 245 197 163 163 178 188 196 202 201 196 207 209 220 219 222 214 213 222 222 224 228 231 232 229 228 234 240 246 252 256 260
341 27 12 142 224 220 226 194 195 244 262 270 261 251 233 210 184 181 184 192 206 204 207 222 217 224 235 222 217 223 234 238 241 242 233 230 235 242 248 252 256 261 264 265
Height
3157 3159 3159 3163 3166 3168 3170 3171 3172 3172 3172 3173 3172 3173 3175 3172 3172 3172 3172 3174 3175 3178 3184 3186 3188 3190 3194 3198 3200 3203 3206 3208 3210 3212 3214 3216 3218 3218 3221 3221 3222 3224 3225 3225
3150 3149 3154 3160 3162 3165 3168 3170 3169 3169 3170 3168 3166 3167 3170 3171 3168 3170 3173 3174 3176 3177 3181 3183 3186 3187 3192 3196 3199 3203 3205 3208 3210 3212 3215 3217 3219 3220 3220 3221 3222 3224 3226 3227
3140 3145 3152 3155 3157 3160 3163 3165 3166 3169 3166 3164 3163 3162 3163 3166 3165 3166 3169 3172 3173 3174 3178 3181 3182 3184 3190 3194 3197 3202 3205 3207 3210 3211 3214 3217 3219 3220 3221 3221 3224 3226 3227 3227
3135 3140 3144 3148 3151 3157 3156 3160 3162 3165 3164 3164 3162 3160 3157 3161 3161 3159 3162 3164 3168 3169 3174 3178 3179 3181 3187 3192 3194 3199 3204 3206 3208 3211 3214 3217 3220 3221 3222 3222 3225 3227 3228 3228
3127 3132 3137 3140 3143 3152 3152 3154 3159 3161 3161 3159 3159 3160 3150 3155 3154 3151 3153 3159 3162 3164 3168 3172 3174 3179 3184 3188 3192 3196 3200 3203 3206 3210 3213 3216 3218 3221 3222 3224 3225 3228 3229 3229
3121 3128 3132 3135 3140 3145 3150 3151 3154 3157 3159 3154 3151 3155 3145 3146 3143 3146 3150 3155 3158 3160 3162 3168 3171 3175 3179 3185 3188 3191 3197 3200 3204 3207 3211 3214 3217 3220 3222 3224 3225 3227 3228 3229
3117 3118 3123 3130 3134 3139 3143 3147 3148 3152 3151 3144 3147 3147 3140 3138 3138 3140 3143 3148 3150 3155 3158 3161 3165 3168 3173 3178 3183 3187 3192 3196 3200 3204 3208 3212 3215 3218 3221 3224 3226 3227 3228 3229
3112 3114 3116 3121 3125 3130 3134 3139 3143 3148 3146 3138 3140 3137 3134 3132 3133 3135 3140 3145 3146 3150 3153 3156 3160 3164 3167 3173 3178 3183 3188 3192 3196 3201 3205 3210 3213 3216 3220 3223 3225 3227 3228 3228
3107 3103 3112 3115 3120 3127 3127 3129 3136 3139 3138 3139 3136 3135 3133 3132 3133 3135 3139 3141 3143 3146 3149 3153 3156 3159 3163 3168 3173 3179 3184 3189 3192 3198 3202 3207 3211 3214 3218 3221 3223 3226 3227 3228
3097 3099 3105 3109 3116 3117 3119 3127 3130 3129 3134 3137 3131 3129 3129 3130 3129 3131 3135 3138 3138 3143 3145 3149 3154 3157 3161 3163 3169 3174 3180 3185 3190 3194 3199 3204 3209 3212 3215 3219 3222 3223 3225 3226
3089 3094 3097 3102 3101 3107 3114 3114 3119 3124 3125 3125 3131 3125 3126 3125 3124 3123 3129 3133 3136 3138 3142 3144 3149 3156 3159 3161 3163 3169 3175 3180 3184 3189 3195 3200 3205 3210 3213 3216 3220 3222 3224 3225
3083 3084 3086 3088 3097 3103 3107 3108 3112 3114 3116 3115 3116 3119 3122 3123 3124 3124 3126 3127 3132 3134 3137 3141 3145 3152 3155 3156 3158 3164 3170 3175 3180 3186 3191 3197 3202 3206 3210 3214 3217 3220 3222 3223
3083 3083 3082 3087 3093 3095 3097 3100 3104 3107 3110 3107 3114 3116 3118 3120 3121 3123 3123 3123 3128 3132 3134 3136 3140 3145 3150 3152 3155 3160 3165 3170 3176 3181 3186 3192 3197 3202 3206 3211 3214 3217 3219 3220
3084 3084 3085 3083 3084 3088 3089 3093 3098 3100 3102 3102 3103 3111 3114 3116 3118 3118 3117 3118 3121 3126 3129 3131 3136 3139 3146 3149 3152 3156 3162 3166 3171 3177 3182 3188 3194 3199 3204 3208 3211 3214 3216 3217
3082 3081 3080 3077 3079 3082 3084 3087 3091 3091 3093 3096 3100 3103 3109 3113 3114 3116 3115 3117 3117 3119 3121 3125 3130 3134 3140 3145 3148 3151 3157 3162 3166 3172 3178 3184 3190 3195 3198 3203 3208 3210 3212 3214
3079 3079 3078 3075 3079 3082 3083 3084 3086 3089 3091 3092 3095 3097 3104 3108 3110 3111 3112 3111 3112 3114 3116 3120 3127 3131 3136 3140 3144 3147 3152 3157 3161 3167 3173 3180 3186 3190 3194 3199 3202 3205 3208 3210
3079 3078 3077 3073 3076 3078 3081 3084 3085 3086 3087 3085 3086 3092 3098 3099 3103 3105 3106 3106 3109 3113 3113 3118 3123 3127 3132 3137 3141 3143 3147 3153 3157 3163 3169 3174 3181 3186 3191 3195 3197 3200 3203 3205
3077 3078 3077 3074 3073 3076 3078 3081 3082 3083 3082 3078 3079 3083 3090 3094 3098 3099 3101 3103 3099 3098 3107 3114 3118 3123 3129 3135 3138 3141 3144 3148 3153 3158 3163 3169 3175 3180 3186 3190 3192 3195 3198 3199
3077 3077 3077 3076 3074 3074 3076 3077 3078 3079 3079 3074 3072 3075 3085 3088 3091 3095 3099 3099 3098 3100 3105 3109 3114 3118 3127 3131 3135 3138 3140 3144 3148 3153 3157 3163 3169 3175 3180 3183 3187 3190 3192 3194
3075 3076 3078 3077 3077 3073 3071 3070 3073 3074 3073 3072 3069 3071 3077 3082 3087 3091 3094 3096 3094 3098 3100 3106 3110 3116 3123 3127 3131 3133 3136 3139 3142 3147 3153 3160 3165 3170 3174 3179 3182 3185 3187 3188
3070 3073 3074 3076 3077 3072 3070 3069 3070 3071 3076 3071 3069 3068 3070 3078 3085 3089 3091 3092 3093 3095 3099 3102 3107 3113 3118 3123 3127 3130 3133 3135 3142 3146 3151 3155 3160 3164 3170 3174 3176 3179 3180 3181
3068 3070 3071 3073 3075 3075 3070 3069 3071 3073 3071 3071 3070 3068 3069 3073 3080 3085 3088 3092 3092 3094 3098 3101 3105 3110 3115 3120 3125 3128 3130 3135 3139 3143 3147 3151 3156 3160 3164 3167 3170 3172 3173 3173
3066 3066 3067 3072 3072 3071 3072 3070 3070 3071 3071 3072 3071 3070 3070 3072 3075 3081 3087 3088 3090 3091 3095 3099 3102 3107 3112 3117 3122 3127 3129 3133 3137 3141 3144 3148 3152 3155 3157 3160 3162 3164 3166 3166
3059 3059 3062 3067 3067 3070 3069 3069 3069 3068 3069 3071 3070 3070 3069 3070 3072 3075 3080 3085 3089 3093 3095 3098 3099 3104 3108 3113 3119 3123 3128 3131 3133 3137 3140 3143 3146 3150 3152 3154 3155 3157 3157 3158
3056 3057 3056 3059 3063 3066 3067 3065 3065 3064 3065 3067 3068 3069 3069 3068 3069 3072 3075 3080 3083 3088 3093 3095 3097 3100 3104 3108 3113 3118 3122 3126 3129 3132 3135 3137 3140 3143 3144 3146 3147 3148 3149 3149
3055 3054 3055 3058 3060 3061 3063 3064 3063 3062 3063 3063 3065 3067 3068 3069 3069 3071 3072 3075 3079 3082 3088 3091 3095 3098 3101 3105 3108 3112 3115 3118 3122 3125 3127 3131 3133 3135 3136 3137 3138 3138 3138 3137